Regional Weather Roundup
Issued by NWS

Home | Current Version | Previous Version | Text Only | Print | Product List | Glossary On
Versions: 1 2 3 4 5 6 7 8 9 10 11 12 13 14 15 16 17 18 19 20 21 22 23 24 25 26 27 28 29 30 31 32 33 34 35 36 37 38 39 40 41 42 43 44 45 46 47 48 49 50
881
ASUS44 KLIX 030810
RWRLA
LOUISIANA WEATHER ROUNDUP
NATIONAL WEATHER SERVICE NEW ORLEANS LA
200 AM CST TUE MAR 03 2015

NOTE: "FAIR" INDICATES FEW OR NO CLOUDS BELOW 12,000 FEET WITH NO
      SIGNIFICANT WEATHER AND/OR OBSTRUCTIONS TO VISIBILITY.
      SKY/WX - SKY CONDITION AND SIGNIFICANT WEATHER.
      TMP - AIR TEMPERATURE.    DP   - DEWPOINT TEMPERATURE.
      RH  - RELATIVE HUMIDITY.  PRES - PRESSURE.
      HX  - HEAT INDEX.         WCI  - WIND CHILL INDEX.

*  THESE STATIONS ARE NOT NWS OR FAA STATIONS AND ARE NOT UNDER
   NWS QUALITY CONTROL.

LAZ040-048-061>063-065-066-069-030900-
SOUTHEAST LOUISIANA

CITY           SKY/WX    TMP DP  RH WIND       PRES   REMARKS
N.O. AUDUBON     N/A     67  67 100 MISG        N/A
N.O. INTL ARPT FOG       66  65  96 S5        30.14F VSB 1/16
N.O. LAKEFRONT FOG       64  61  90 SE5       30.14F VSB 1/4
SLIDELL        FOG       65  65 100 SE5       30.14F VSB 1/2
BATON ROUGE    FOG       57  57 100 CALM      30.14F VSB 1/4
BOOTHVILLE     FOG       64  63  96 SE3       30.16F VSB 1/4
BELLE CHASSE   FOG       66  63  90 SE5       30.13F VSB 1/2
BOGALUSA*      FOG       64  62  91 CALM      30.16F VSB 1/4
GALLIANO*      FOG       57  57  99 MISG      30.14F VSB<1/4
NEW ROADS*     FOG       50  50  99 NW3       30.15F VSB 1/4
GONZALES*      FOG       65  65 100 CALM      30.13F VSB<1/4
HAMMOND*       NOT AVBL
HOUMA*         HVY RAIN  66  66 100 CALM      30.13F VSB 1/4
PORT FOURCHON* SUNNY     68  66  94 SE8       30.17F FOG

$$

LAZ041-044-053-054-030900-
SOUTHWEST LOUISIANA

CITY           SKY/WX    TMP DP  RH WIND       PRES   REMARKS
LAKE CHARLES   FOG       53  52  96 NE7       30.13F VSB 3/4
LAFAYETTE      FOG       53  53 100 NE6       30.14F VSB 1/2
PATTERSON      CLOUDY    66  64  94 CALM      30.13F VSB 1/4
SALT POINT       N/A     67  66  97 CALM      30.11F
NEW IBERIA     FOG       57  56  96 NE5       30.14F VSB 1/2
CHENAULT AIRPK FOG       52  52 100 E5        30.14F VSB 1

$$

LAZ027-028-030900-
CENTRAL LOUISIANA

CITY           SKY/WX    TMP DP  RH WIND       PRES   REMARKS
FORT POLK      CLOUDY    48  46  93 E3        30.13F FOG
ALEXANDRIA INT CLOUDY    45  45 100 E3        30.14F FOG
ALEXANDRIA     CLOUDY    44  44 100 E3        30.15F FOG

$$

LAZ001-002-030900-
NORTHWEST LOUISIANA

CITY           SKY/WX    TMP DP  RH WIND       PRES   REMARKS
SHREVEPORT     DRZL/FOG  42  41  96 SE5       30.14F VSB 1/2
BARKSDALE AFB  CLOUDY    41  41 100 CALM      30.15F FOG
DTN SHREVEPORT CLOUDY    40  39  97 E3        30.15F FOG

$$

LAZ014-016-030900-
NORTHEAST LOUISIANA

CITY           SKY/WX    TMP DP  RH WIND       PRES   REMARKS
MONROE         FOG       41  41 100 CALM      30.17F VSB 1/2
TALLULAH       FOG       44  44 100 CALM      30.16F VSB 3/4

$$




USA.gov is the U.S. government's official web portal to all federal, state and local government web resources and services.